Volver al catálogo

NIMBUS 2 DEB

ActivoLEO
NORAD 40641·DEBRIS·🇺🇸 United States

Lanzado May 15, 1966 desde Vandenberg Space Force Base

Loading…

Próximos Pases (próximas 24 horas)

TLE

ActualizadoSource: Space-Track

Época: Sep 12, 2026, 23:03 UTC

1 40641U 66040BE  26255.96073120  .00001143  00000-0  19907-2 0  9996
2 40641 100.4042 149.2555 0051552 340.6419  19.2752 13.45609408554712

Sigue NIMBUS 2 DEB en tiempo real con AllMySat

Download on the App Store